Regional Weather Roundup
Issued by NWS Binghamton, NY

Home | Current Version | Previous Version | Text Only | Print | Product List | Glossary On
Versions: 1 2 3 4 5 6 7 8 9 10 11 12 13 14 15 16 17 18 19 20 21 22 23 24 25 26 27
000
ASUS41 KBGM 181310
RWRBGM

REGIONAL WEATHER ROUNDUP
NATIONAL WEATHER SERVICE BINGHAMTON NY
800 AM EST WED JAN 18 2017

Note: "fair" indicates few or no clouds below 12,000 feet with no
significant weather and/or obstructions to visibility.

* = Station(s) that does not report precipitation, such as rain,
snow, etc, also no thunder or fog.

NYZ009-015>018-022>025-036-037-044>046-055>057-062-181400
...Central New York...

CITY           SKY/WX    TMP DP  RH WIND       PRES   REMARKS
Binghamton     FOG       33  33 100 S3        29.86R VSB 1/4
Cortland       RAIN      36  36 100 CALM      29.88S
Dansville      CLOUDY    41  32  70 VRB3      29.91R
Elmira         LGT RAIN  37  35  92 CALM      29.89R FOG
Ithaca         DRIZZLE   37  36  96 CALM      29.89R FOG
Monticello     CLOUDY    32  32 100 CALM      29.90S
Penn Yan       LGT RAIN  41  33  73 VRB5      29.89R
Rome           LGT RAIN  34  34 100 SE8       29.92R FOG     WCI  27
Syracuse       DRIZZLE   34  34 100 CALM      29.90R FOG
$$

PAZ038>040-043-044-047-048-072-181400
...Northeast Pennsylvania...

CITY           SKY/WX    TMP DP  RH WIND       PRES   REMARKS
Hazleton       FOG       36  36 100 CALM      29.91R VSB<1/4
Scranton       CLOUDY    36  36 100 E3        29.90R FOG
$$
&&
KEY
WCI = Wind Chill Index
VSB = Visibility
HX  = Heat Index
$$




USA.gov is the U.S. government's official web portal to all federal, state and local government web resources and services.